Wind_Speed
37 38 37 38 39 40 41 40 39 38 38 38 37 36 35 35 35 35 35 35 35 34 34 33 32 31 31 30 30 30 30 31 32 33 34 34 35 35 36 37 38 39 39 39 38 37 36 36 36 35 34 32 31 30 29 29 29 29 29 30 30 31 32 32 32 32 32 32 33 34 35 35 36 37 38 40 41 43 44 46 46 47 48 49 50 50
36 37 37 37 37 39 40 39 37 36 37 37 37 37 36 36 36 36 36 35 34 33 33 33 32 32 32 33 33 33 34 35 35 35 34 33 33 33 34 35 35 36 36 36 36 35 35 35 35 34 33 31 30 28 27 27 28 28 29 29 29 30 31 31 32 32 32 33 33 34 35 35 36 36 37 38 39 40 41 43 45 46 48 50 51 51
35 36 36 35 35 35 37 37 36 35 35 36 36 36 36 36 36 36 35 33 33 32 32 32 33 33 35 35 35 35 35 36 35 34 33 32 32 32 32 33 34 34 35 36 36 36 35 35 35 34 34 32 31 29 29 29 29 30 29 29 29 30 30 31 31 32 33 33 34 35 35 35 36 36 37 37 38 38 39 41 43 46 48 49 51 51
34 35 35 34 34 34 34 35 35 34 34 34 35 35 35 35 35 34 33 33 33 33 33 33 34 34 35 35 35 34 34 33 33 33 32 32 32 32 33 33 34 35 37 38 39 38 37 37 36 36 36 35 34 34 33 33 33 32 31 31 30 30 30 30 31 32 33 34 35 35 36 36 36 37 37 37 38 38 39 40 42 45 47 49 50 51
34 34 34 34 34 34 34 34 34 34 33 33 33 33 33 33 33 34 34 34 34 35 35 34 34 34 34 34 34 34 33 33 33 32 32 33 33 34 35 35 35 36 38 40 41 41 40 39 39 39 39 39 38 38 38 37 36 35 34 33 31 30 30 29 30 30 32 33 34 35 36 36 36 37 37 37 38 38 38 39 41 43 46 48 49 50
34 34 34 34 34 34 34 34 33 32 32 32 32 32 32 32 33 34 34 35 35 36 36 35 35 35 35 35 34 34 34 34 33 33 33 34 35 36 36 36 36 37 38 39 40 40 39 38 38 38 39 40 40 40 40 38 37 35 34 33 31 30 28 28 28 29 30 32 33 34 35 36 36 37 37 37 38 38 38 39 39 41 43 46 48 49
34 34 33 33 34 33 33 32 31 31 31 32 32 33 33 33 33 34 35 35 36 36 36 36 35 35 35 34 34 34 34 34 34 34 34 34 35 35 35 34 34 34 35 35 35 35 35 34 34 34 35 36 37 37 37 36 34 33 32 30 29 28 27 26 26 26 28 30 32 33 35 36 36 37 38 38 38 38 37 37 38 39 40 42 45 47
34 34 33 33 33 32 32 32 31 30 30 31 33 34 35 35 35 35 35 35 35 35 35 35 35 34 34 33 33 33 33 33 33 33 33 33 32 32 32 32 32 33 33 34 34 34 34 34 33 31 30 30 30 31 31 31 31 30 29 27 26 26 25 25 25 25 26 28 30 32 34 35 36 37 38 38 38 38 37 36 36 37 37 39 41 44
34 34 33 33 32 31 32 33 32 31 31 31 32 33 35 36 36 36 35 35 34 33 32 33 33 33 33 32 32 32 31 31 31 31 31 31 31 31 31 31 32 33 35 36 37 37 37 36 35 32 29 27 26 27 27 28 28 28 27 26 25 25 25 25 24 24 25 26 28 31 33 35 36 37 38 39 39 38 37 36 36 36 36 36 38 41
33 33 33 33 32 31 32 34 34 33 31 31 31 32 32 34 35 35 35 35 34 32 31 31 32 33 33 32 32 31 31 31 31 30 31 31 31 31 32 32 33 35 37 38 38 37 37 36 35 33 30 28 27 27 27 27 28 28 27 27 27 26 26 26 25 25 25 26 27 29 32 34 36 37 38 39 40 39 39 37 37 36 36 35 36 38
33 33 33 33 33 32 32 33 33 33 32 31 31 31 31 30 31 32 34 35 35 34 32 32 32 32 33 33 32 31 31 31 31 31 31 30 31 31 32 34 36 38 37 36 35 34 34 34 33 32 31 30 29 29 29 29 29 29 29 29 29 28 28 27 27 27 27 27 28 29 30 32 34 36 37 39 40 40 40 40 39 39 38 36 36 36
33 33 32 32 33 32 32 32 32 31 30 30 30 31 31 31 30 31 33 35 35 35 34 34 33 32 32 32 32 32 31 31 31 31 31 31 30 30 31 34 35 35 33 32 32 31 30 30 30 31 31 30 30 30 30 31 31 31 31 31 30 30 30 30 30 30 30 30 30 30 30 31 32 34 36 37 39 40 41 42 42 42 41 40 38 37
33 32 32 32 32 32 32 32 32 31 29 29 29 31 33 33 32 32 32 34 35 35 35 35 34 34 33 33 32 32 32 32 32 32 31 30 30 30 31 32 32 31 30 30 28 27 27 27 28 28 28 29 29 29 30 30 31 31 31 31 31 32 33 33 34 34 34 33 32 31 30 30 31 32 34 35 37 39 40 42 43 44 44 43 42 40
32 32 32 32 32 32 32 32 31 30 29 29 30 32 34 34 33 33 33 34 35 35 35 35 35 35 34 34 33 32 32 31 31 31 30 30 30 30 30 30 30 29 28 28 29 29 30 31 32 32 32 31 30 30 30 30 30 31 32 32 34 35 36 36 37 37 36 35 33 32 31 30 30 30 31 33 35 36 38 40 42 43 44 45 44 43
32 32 32 33 33 33 32 31 29 28 29 30 31 32 33 33 33 33 34 35 36 36 35 35 36 36 34 33 31 30 29 29 29 28 28 28 28 28 28 28 28 29 31 33 36 39 40 41 42 42 40 39 38 37 35 34 33 34 35 36 37 37 37 37 37 36 36 35 34 33 32 31 30 29 30 31 33 34 36 37 39 41 43 44 44 44
33 33 33 34 34 33 31 28 26 26 29 31 32 32 32 33 33 34 35 36 36 36 36 35 35 34 32 30 27 24 23 24 25 26 27 29 30 31 31 30 31 33 36 41 45 47 46 45 44 44 43 43 42 40 38 37 36 36 36 36 36 35 35 34 34 34 34 33 33 33 32 32 31 30 30 31 32 33 34 36 37 39 40 42 43 44
33 33 34 34 34 32 29 27 27 28 31 32 32 32 32 33 34 35 36 37 37 36 35 33 30 28 26 25 24 22 22 24 27 31 33 35 37 36 35 34 35 36 39 42 44 45 44 42 39 38 39 39 38 36 34 32 32 32 31 31 31 31 31 31 31 31 31 32 32 32 32 32 32 32 32 32 33 34 35 36 37 38 39 41 42 44
34 34 34 34 33 30 27 28 29 31 31 32 32 32 33 34 35 36 39 39 37 34 31 28 27 26 26 27 28 28 28 29 31 34 36 38 38 36 34 34 35 36 37 38 39 40 39 37 34 33 32 31 30 28 26 26 26 26 28 28 29 29 29 29 29 30 30 30 31 31 32 32 33 33 33 34 35 35 36 37 38 39 40 41 42 43
35 35 34 32 30 29 29 31 32 32 32 32 31 33 35 37 40 41 40 35 31 28 27 27 29 29 30 31 33 33 31 31 31 32 35 36 37 36 35 33 33 34 35 35 36 37 37 35 33 31 29 26 25 23 23 25 26 28 30 30 30 29 29 29 29 29 29 30 30 31 32 33 33 34 35 35 36 37 38 38 39 40 41 42 43 44
36 34 32 32 31 31 33 33 33 32 32 32 34 37 40 42 41 37 32 28 26 26 28 30 31 32 31 32 33 34 33 32 32 33 34 35 36 35 34 32 31 32 33 33 34 35 35 35 34 31 28 25 24 25 27 29 32 33 33 31 30 29 28 28 28 29 29 30 30 31 32 33 33 34 35 36 37 38 39 39 40 41 42 43 43 44
36 35 35 34 33 34 34 34 33 33 34 36 39 41 41 39 35 31 28 27 28 30 31 31 31 31 32 32 34 36 36 35 34 35 36 35 34 33 31 30 30 31 32 32 33 33 33 33 32 30 27 26 27 30 33 35 36 35 33 31 29 28 27 27 27 28 28 29 30 31 31 32 33 34 35 37 38 38 39 40 40 41 42 43 44 44
35 36 36 35 35 35 34 35 36 37 38 40 40 38 36 35 34 35 34 33 32 32 33 33 34 35 35 36 37 39 38 34 33 34 35 33 31 30 28 27 28 29 29 29 30 30 29 28 27 28 30 32 35 36 38 37 36 34 31 29 28 27 27 27 27 27 28 29 29 30 31 32 33 34 35 36 37 38 38 39 40 41 41 42 43 44
35 36 36 35 34 34 35 38 40 41 41 40 38 36 38 39 40 39 39 36 34 35 37 37 38 38 38 38 38 37 34 31 30 30 29 26 25 26 27 27 27 27 29 31 29 28 29 32 35 37 39 40 40 39 37 35 32 30 29 28 27 27 26 26 26 27 27 28 29 30 31 31 32 33 34 35 35 36 37 37 38 39 40 41 42 42
36 37 37 36 36 36 38 40 42 42 40 38 37 38 41 43 43 41 39 37 36 37 39 40 39 38 38 36 35 33 32 30 28 26 26 28 30 32 33 32 32 33 35 36 35 36 38 41 43 43 42 40 37 35 32 31 30 29 29 28 28 27 26 25 25 26 26 27 28 29 30 30 31 31 32 32 33 34 34 35 36 37 38 39 40 40
37 38 38 38 38 39 41 43 42 40 37 37 38 40 42 42 41 39 36 36 36 36 36 36 36 35 34 32 32 31 31 30 28 27 26 26 28 31 31 30 29 30 33 35 37 38 38 40 40 39 36 34 32 30 30 30 30 30 29 28 27 25 25 24 24 24 25 25 26 26 27 27 28 29 29 30 30 31 32 32 33 34 34 35 36 36
38 38 38 38 39 39 40 40 40 38 37 36 38 39 40 39 38 36 34 34 34 33 32 32 31 31 31 31 30 30 29 26 23 21 21 22 25 28 30 29 28 29 31 33 34 34 33 33 33 32 32 31 31 30 31 31 30 29 27 25 24 23 22 22 21 22 22 22 22 23 23 24 24 25 26 27 28 28 28 29 29 29 30 31 32 34
37 37 37 37 37 37 37 37 36 36 37 37 36 35 34 34 34 32 31 30 31 32 31 31 31 31 31 30 30 29 27 25 22 21 22 24 27 29 30 28 27 27 28 29 29 29 29 29 30 31 32 33 33 33 31 29 27 25 23 22 21 19 18 17 17 18 18 18 18 18 19 19 20 21 22 23 23 23 24 24 25 25 27 29 31 33
37 37 36 36 35 35 35 36 37 37 36 34 31 28 28 29 30 29 28 30 31 32 31 31 31 30 30 30 30 30 29 27 26 25 24 24 25 27 27 26 25 24 25 27 29 30 30 31 32 33 34 34 32 29 26 23 22 21 21 19 18 16 14 13 13 13 14 14 13 13 14 15 16 17 18 19 19 20 20 22 23 26 29 33 36 39
37 36 35 34 33 33 34 34 34 33 31 28 25 24 24 26 27 28 29 32 33 33 32 31 30 30 30 31 32 32 31 28 24 22 20 21 23 25 25 24 23 23 25 28 30 31 30 31 31 31 30 27 24 21 19 20 20 21 20 18 16 15 12 11 9 9 9 8 9 10 12 13 14 15 16 17 18 19 22 25 28 32 37 41 44 45
37 35 33 32 32 31 31 30 29 28 26 25 25 24 24 25 26 29 32 34 33 32 31 31 30 30 30 31 32 31 29 25 20 17 17 19 22 25 25 25 26 26 26 26 26 25 24 24 24 22 20 18 17 17 18 20 21 20 19 17 17 15 13 10 8 7 7 8 9 11 13 15 16 16 17 18 20 23 26 30 34 39 43 47 47 47
36 34 33 32 31 30 30 29 28 28 27 27 26 25 25 26 28 31 33 33 32 31 31 31 31 31 31 29 29 29 27 24 20 19 20 23 25 26 27 26 26 25 23 22 20 20 20 19 18 17 16 16 18 20 22 22 21 19 16 15 15 14 12 10 8 8 9 11 13 15 16 18 18 19 20 21 24 27 31 35 39 43 47 48 48 47
35 33 32 32 31 31 30 29 30 30 30 29 27 26 26 28 32 34 34 32 31 30 31 31 32 32 32 30 30 30 29 28 26 25 25 25 26 27 27 25 24 23 22 20 20 20 19 19 19 20 22 23 24 25 24 23 20 16 13 12 11 10 10 10 10 12 13 15 17 19 20 21 22 22 24 26 28 31 34 38 42 46 48 49 48 47
34 33 32 32 32 31 30 30 31 31 31 29 28 28 30 33 34 35 34 32 31 30 30 31 32 32 32 32 32 32 31 30 28 27 26 25 25 25 25 24 24 23 23 22 22 22 22 23 24 27 28 29 28 27 25 22 18 14 12 10 10 11 12 14 16 17 19 20 21 23 24 26 27 28 29 31 32 34 37 41 44 46 47 48 48 48
34 33 33 32 31 30 30 31 31 32 31 29 29 31 33 36 36 34 33 32 31 30 30 30 31 32 33 33 32 32 31 30 29 28 27 27 26 25 26 25 24 24 23 22 22 23 24 25 26 27 27 28 28 27 24 21 17 13 11 12 14 15 16 18 20 22 23 23 25 26 27 29 30 32 34 35 36 38 40 43 45 47 48 49 49 48
33 32 32 31 30 30 30 30 31 31 31 30 31 33 35 36 35 34 33 32 31 31 30 31 31 32 32 32 32 32 32 31 31 30 30 29 27 27 27 26 25 24 23 23 22 22 22 23 24 24 24 25 26 26 23 20 17 13 12 14 16 18 20 22 23 25 25 25 26 26 27 28 29 31 33 35 37 39 41 42 43 44 44 45 45 45
31 31 31 30 30 30 30 30 31 31 31 31 32 34 35 35 34 33 33 33 32 32 32 32 32 31 31 31 32 33 34 35 34 32 29 27 25 26 27 28 27 26 25 24 24 22 21 21 22 22 22 22 23 23 22 19 16 14 14 15 18 20 22 24 25 26 26 27 26 26 26 26 27 28 30 32 34 35 36 36 36 35 34 34 34 34
31 30 30 30 30 30 31 31 31 31 31 31 32 34 35 36 35 33 33 33 34 34 34 33 32 30 30 29 30 32 33 33 32 28 25 23 23 25 29 30 30 29 28 26 25 24 22 21 21 21 21 21 21 21 20 18 16 14 15 15 18 21 23 24 25 26 27 27 27 26 26 25 26 26 27 28 29 29 29 27 26 26 25 24 25 25
30 30 31 31 31 31 31 31 31 31 32 32 33 35 36 36 35 33 33 33 34 35 35 33 32 31 30 29 29 29 29 28 26 24 22 21 23 26 29 31 30 29 28 27 26 25 24 22 21 20 19 20 22 22 20 18 17 16 16 16 18 21 23 24 24 25 26 27 28 27 27 26 26 25 25 25 25 25 25 25 24 24 24 25 25 26
30 31 31 31 32 32 32 32 32 32 33 35 36 36 36 35 33 32 32 33 34 34 33 32 32 32 31 30 29 27 26 24 22 20 20 21 23 25 27 29 30 29 27 27 26 26 25 24 22 20 18 19 21 23 22 19 18 17 18 19 19 20 22 22 23 24 26 27 28 29 28 27 26 26 25 25 24 25 26 27 27 27 28 29 29 30
31 32 32 32 32 33 33 33 33 33 34 36 36 35 34 33 31 31 31 32 33 32 32 31 31 31 31 30 28 25 23 21 19 19 20 22 23 25 26 28 28 28 28 27 27 26 26 26 25 24 22 21 22 22 22 20 18 19 21 21 21 20 21 22 23 24 26 28 29 30 30 28 27 26 26 25 25 26 28 29 29 29 29 31 33 34
32 32 32 32 33 34 34 34 34 35 36 36 35 34 33 31 31 31 32 32 32 31 31 30 30 30 30 29 26 23 21 19 19 19 21 22 24 25 26 27 28 28 28 27 27 26 26 26 26 25 24 23 23 23 21 20 19 20 23 24 24 23 22 22 23 25 27 28 30 31 30 29 28 27 26 25 25 26 27 29 30 30 30 31 34 36
32 33 33 33 33 33 34 35 36 36 35 34 33 33 32 30 30 31 32 32 31 30 30 30 30 30 29 27 25 22 20 20 20 20 22 23 24 25 25 26 27 27 27 27 26 25 24 23 23 23 23 23 24 23 21 19 19 21 24 27 27 25 24 24 25 26 28 30 30 31 30 29 28 27 25 25 25 26 26 28 29 30 31 32 34 36
32 33 33 34 34 35 35 35 35 34 33 33 33 32 31 30 30 31 31 31 31 30 30 30 29 28 28 26 24 23 22 21 21 22 22 23 24 24 25 25 25 25 24 24 24 24 22 21 21 21 22 22 23 23 21 20 20 22 25 27 28 27 26 26 27 28 30 31 31 31 30 29 28 26 25 24 24 25 26 27 28 29 30 32 34 36
33 33 34 35 36 36 36 35 34 33 33 33 33 32 31 31 31 31 31 31 31 30 30 29 27 26 26 25 24 23 22 22 22 22 22 22 22 23 22 22 22 22 21 21 21 21 20 20 20 20 20 21 21 21 20 21 22 24 26 27 28 29 29 29 30 30 31 31 31 30 29 28 27 26 25 24 24 24 24 25 26 27 29 31 33 35
33 34 34 35 35 35 34 34 34 34 34 34 33 32 30 30 31 31 31 31 30 29 28 27 25 24 23 22 22 22 22 22 21 20 19 18 18 18 18 18 17 17 17 17 18 18 18 18 18 18 18 19 19 19 20 21 24 26 27 28 29 30 31 31 31 31 31 31 30 30 29 28 27 26 25 25 24 23 23 23 24 25 26 28 30 32
34 34 35 36 35 34 34 34 34 34 34 33 33 32 31 31 31 31 30 29 29 28 26 24 23 22 21 21 20 21 21 20 18 16 13 12 12 12 12 12 12 13 13 14 14 15 15 15 15 16 16 17 17 18 19 22 25 28 29 29 30 31 31 31 31 31 31 31 30 29 28 27 27 27 27 26 24 23 22 22 22 22 23 24 25 27
34 35 35 35 35 34 34 34 34 34 33 33 32 31 30 30 30 29 28 27 27 26 24 23 21 20 20 20 20 19 19 17 13 10 8 7 7 7 7 7 8 8 8 9 10 11 11 11 12 13 14 15 17 19 20 22 25 28 29 30 30 31 32 32 31 31 30 30 29 29 28 27 27 27 27 26 24 23 21 20 20 20 20 21 21 22
35 35 35 35 35 35 35 35 34 34 33 33 32 31 30 29 29 28 27 26 25 24 23 21 20 19 19 18 18 17 15 12 9 7 6 6 5 5 4 3 2 2 3 4 4 5 6 7 8 10 12 15 18 20 21 23 25 28 29 30 31 31 32 31 31 30 30 29 29 28 28 27 27 27 27 26 24 22 21 19 18 18 18 18 19 19
35 35 35 35 36 35 35 35 35 34 33 32 31 31 30 30 29 27 26 25 24 22 21 20 19 18 17 17 16 14 11 8 6 6 6 6 5 5 4 5 4 4 3 2 2 3 4 5 6 7 9 13 16 20 22 23 25 27 29 30 31 31 31 31 30 29 28 28 28 27 27 26 26 26 26 26 25 23 21 19 17 17 16 17 17 18
36 35 35 35 35 35 35 35 35 34 33 32 31 31 31 30 28 26 25 24 23 21 20 18 17 16 15 15 13 11 8 6 6 7 7 6 5 4 4 4 5 6 7 6 6 6 6 7 7 7 8 10 13 18 21 24 25 27 28 29 30 31 31 30 29 28 27 27 26 26 25 25 25 25 25 25 24 23 22 20 18 16 15 15 15 16
35 36 35 35 35 36 36 36 35 33 32 31 31 31 31 29 27 26 24 23 22 21 19 17 15 14 13 12 10 8 6 7 8 9 8 7 5 4 3 3 3 5 7 9 10 10 11 12 12 11 10 10 12 16 20 24 25 27 28 30 30 31 31 30 29 28 27 26 25 24 23 24 24 25 24 24 24 24 23 22 20 17 16 15 15 15
Wind_Direction
293 294 294 295 296 296 296 296 297 297 298 298 298 298 298 297 296 295 295 294 294 294 293 293 292 292 292 292 292 291 291 291 290 289 288 287 285 283 282 281 281 281 282 283 283 282 281 280 278 277 276 276 276 277 278 279 280 280 279 278 278 278 278 278 277 276 273 270 267 265 263 262 262 262 262 261 261 259 256 253 250 247 246 244 242 240
294 294 294 295 295 295 295 295 296 296 296 297 297 297 297 297 297 296 296 295 294 293 293 292 292 291 291 291 290 290 290 290 290 290 290 289 288 287 286 285 285 285 285 285 284 283 281 279 278 277 276 275 274 275 277 280 281 281 280 278 277 276 277 276 275 273 270 268 266 264 262 261 261 261 261 261 261 260 258 256 253 250 247 246 245 243
297 297 296 296 296 295 295 296 296 296 296 296 296 297 297 297 297 296 296 296 295 294 293 292 291 291 291 290 290 289 289 289 290 291 291 290 290 289 288 286 285 285 284 284 284 283 281 279 277 276 275 273 272 274 278 281 282 281 279 277 276 275 275 274 272 270 267 265 263 261 260 260 259 259 260 260 260 259 258 258 256 253 250 248 247 246
298 298 297 298 297 296 295 296 296 297 296 296 296 296 297 297 297 296 296 296 296 295 294 293 292 291 290 290 290 289 289 289 289 289 289 289 289 289 287 285 284 283 282 282 282 283 282 279 277 275 274 273 273 274 278 281 281 280 278 276 275 274 273 272 270 268 266 263 262 260 259 258 257 257 257 258 258 258 257 257 257 255 253 250 248 247
298 297 297 298 298 296 296 296 296 297 297 297 297 297 297 297 296 296 296 296 295 295 294 293 292 291 290 289 289 289 289 289 288 287 286 286 286 286 286 284 281 280 279 280 282 283 282 280 277 275 273 273 273 275 277 279 279 277 276 274 273 273 272 271 269 267 265 263 262 260 259 258 257 256 255 255 256 256 256 255 256 255 254 251 249 248
297 296 297 297 296 296 296 296 297 297 298 298 298 298 298 297 297 296 296 296 295 295 294 292 291 290 289 289 289 289 289 288 288 287 285 285 284 285 285 284 282 280 279 280 281 282 282 280 278 275 274 273 273 274 275 276 276 275 273 272 272 271 271 270 269 267 266 264 262 261 260 258 257 256 255 254 254 254 254 254 254 255 254 252 250 248
296 296 296 295 295 295 295 296 297 298 299 300 300 300 299 298 297 296 295 294 294 293 293 291 290 290 289 289 289 289 288 288 287 285 284 284 284 284 285 285 285 284 283 283 283 284 284 284 282 279 277 275 274 273 273 273 272 272 271 270 269 268 268 269 270 269 268 266 264 262 261 259 258 256 255 253 253 252 253 253 253 254 254 254 251 248
295 295 296 296 296 296 296 297 298 299 300 301 301 300 300 299 298 296 294 293 293 292 292 291 291 290 289 289 289 289 288 287 286 285 285 284 284 284 284 284 285 286 287 287 287 287 288 288 287 285 282 277 273 271 269 269 269 269 269 267 265 264 265 268 270 271 270 268 265 263 261 260 258 257 255 253 252 250 250 251 251 253 254 255 253 250
294 295 296 297 298 299 300 299 299 300 300 300 299 299 299 299 298 297 296 295 293 292 292 292 291 291 290 289 289 289 288 287 286 286 286 286 285 284 283 283 284 285 287 288 289 288 288 288 288 287 283 278 273 269 267 267 268 268 267 265 262 261 263 266 270 272 272 270 267 264 262 260 258 256 255 253 251 249 247 247 248 250 252 255 255 252
296 297 299 299 299 300 300 299 299 299 299 298 297 296 296 297 298 299 298 297 296 295 293 292 292 292 292 291 291 290 290 289 287 287 286 286 285 284 283 282 282 284 287 288 288 287 286 286 285 284 281 276 272 269 268 268 268 268 267 264 262 262 263 266 269 272 274 273 270 267 263 260 258 256 255 253 250 247 245 243 243 245 248 251 253 253
300 300 300 299 299 298 297 297 298 299 299 298 297 296 296 295 296 297 298 297 297 297 295 294 292 291 292 292 292 291 291 290 289 288 287 285 284 283 282 283 285 287 290 290 289 288 287 286 285 284 281 277 274 271 270 270 269 268 266 265 264 264 265 267 269 272 274 275 274 270 266 261 258 256 254 253 250 247 244 242 240 241 242 244 247 250
300 299 299 298 298 298 297 297 297 297 297 298 299 300 299 298 297 296 295 295 296 296 295 293 291 290 289 289 290 291 291 290 289 289 288 286 285 284 285 288 291 294 294 292 290 288 286 285 284 284 282 279 276 274 272 271 269 268 266 266 266 267 267 269 270 272 273 275 275 272 267 262 258 255 254 253 251 249 246 243 241 239 239 240 241 243
298 298 298 297 297 297 298 297 297 296 296 298 299 300 300 300 298 295 292 291 291 292 292 291 290 288 287 287 287 288 289 288 288 287 287 286 286 287 288 291 294 295 293 289 286 283 281 281 281 282 281 278 276 275 273 272 270 268 268 269 270 271 272 272 272 272 273 273 272 270 267 262 257 254 253 252 251 250 248 246 243 242 240 239 238 238
298 298 298 297 296 296 296 294 293 293 295 298 299 299 298 298 296 293 290 289 289 289 289 288 287 287 287 286 286 286 286 286 286 286 286 286 286 286 288 289 289 289 287 284 283 282 282 284 285 285 283 282 280 280 279 277 274 272 273 274 276 278 277 276 275 273 272 271 269 267 264 261 256 253 251 251 251 251 250 248 247 245 243 241 239 237
298 298 297 296 295 294 292 290 290 292 296 299 299 298 296 295 294 291 288 287 288 289 288 287 286 286 285 285 285 284 283 284 285 287 287 288 288 288 288 287 285 284 283 283 284 285 285 287 287 286 285 284 283 283 283 282 280 278 278 280 281 281 280 278 276 273 271 268 266 264 261 259 256 253 251 250 250 250 250 249 249 247 246 244 241 239
297 296 295 294 292 290 287 287 291 296 299 301 300 297 295 293 292 290 288 287 288 289 287 287 287 287 286 287 287 287 288 289 291 294 295 295 295 294 293 291 288 285 284 283 284 285 286 286 285 284 283 283 283 283 284 283 281 280 281 282 282 281 280 277 274 271 268 265 262 260 258 257 256 254 251 250 250 249 249 249 249 248 247 244 242 239
295 294 292 290 288 287 288 292 296 300 301 300 298 296 293 291 290 290 288 287 287 287 287 288 290 292 294 296 297 297 298 300 301 300 299 297 295 293 291 289 287 285 285 284 285 286 288 287 285 282 281 282 283 284 284 282 281 281 281 282 282 280 278 274 271 267 265 262 259 256 255 254 254 253 252 251 250 250 249 249 248 247 246 244 242 240
293 291 289 287 287 289 294 298 300 301 300 298 296 295 292 291 290 288 287 286 287 289 292 295 298 300 302 302 301 299 299 300 299 298 296 294 292 290 288 286 283 282 283 282 283 286 289 290 288 286 284 284 285 285 284 283 283 284 286 286 284 281 277 273 269 266 263 260 258 255 253 252 252 252 252 252 251 250 250 249 248 247 245 243 241 240
291 290 290 290 292 296 299 300 300 298 297 296 294 293 292 290 289 287 286 287 290 296 301 304 304 303 301 299 298 297 298 298 297 295 293 292 291 290 289 287 285 283 281 280 281 284 288 290 291 291 290 289 288 287 286 288 290 293 293 291 287 281 276 272 268 265 262 260 257 255 253 252 252 252 252 252 252 251 250 249 249 247 245 243 241 239
293 294 295 297 299 300 299 297 296 294 293 292 292 291 289 289 288 289 290 294 299 303 305 304 302 300 298 296 296 297 297 297 296 294 292 290 290 290 290 289 287 284 281 279 280 284 286 288 290 292 293 292 291 291 292 295 298 298 296 292 287 281 276 271 268 265 262 260 258 255 254 252 252 252 253 253 252 251 250 249 249 247 246 243 240 237
298 299 299 299 299 297 295 293 292 291 291 291 290 289 289 290 292 295 298 301 303 303 303 301 299 297 297 296 295 295 296 297 295 293 290 288 287 288 290 290 288 284 280 279 282 284 284 285 286 289 291 292 293 294 296 298 298 297 294 290 285 280 276 272 268 265 262 260 258 256 254 253 253 253 253 253 252 251 250 249 249 247 246 243 240 236
300 299 298 297 295 293 291 291 292 292 291 290 289 289 291 295 298 300 300 300 300 301 302 300 299 297 296 294 293 294 296 295 294 291 287 283 282 285 291 293 291 287 283 284 286 286 284 283 285 288 291 293 294 295 296 297 296 293 291 288 284 281 277 273 269 266 263 260 258 256 254 253 253 253 253 252 252 251 250 249 249 247 245 242 238 234
299 297 297 296 294 292 292 293 293 292 290 289 290 292 295 298 298 297 296 296 298 301 302 301 300 298 297 295 293 293 294 294 292 289 286 286 288 291 293 294 294 293 292 291 290 289 288 289 290 291 292 293 294 295 295 294 292 291 290 288 286 282 278 274 271 267 264 261 259 256 254 253 252 251 251 251 250 250 249 249 248 246 243 239 235 231
299 297 297 296 296 296 295 294 291 289 289 291 293 295 297 297 296 294 293 295 299 302 304 304 301 298 296 295 293 292 291 289 287 287 290 292 292 292 291 291 292 292 291 289 288 289 290 290 291 291 292 292 292 292 292 291 291 292 291 290 287 284 280 277 273 269 265 261 258 256 253 251 250 249 248 248 248 248 248 247 246 243 239 235 231 228
300 299 298 297 297 297 296 292 289 288 290 293 295 297 296 295 294 293 293 296 301 304 304 302 298 296 295 294 293 291 289 289 288 287 288 288 288 289 289 290 289 288 287 287 287 289 291 291 291 291 291 290 290 290 290 292 293 294 293 292 289 286 283 278 274 269 264 260 256 253 250 248 247 245 245 245 245 245 244 243 241 238 235 232 229 229
302 301 300 299 298 297 296 293 291 291 292 294 294 294 294 293 293 293 295 299 302 304 302 299 296 295 294 294 292 291 291 291 290 287 286 288 290 290 290 290 288 286 286 288 291 293 294 294 293 292 291 290 290 291 293 295 296 296 295 293 291 288 285 280 274 267 261 255 250 246 244 243 243 243 243 243 243 242 241 239 237 234 232 230 228 226
305 303 302 300 299 298 297 295 294 294 294 294 293 292 292 292 293 294 296 300 303 303 301 298 296 296 296 294 293 292 292 292 291 290 291 291 290 289 288 289 289 287 287 291 294 296 295 293 291 290 291 291 292 294 296 298 299 299 298 296 294 292 288 280 271 261 252 246 242 240 240 241 242 243 244 244 243 242 240 236 232 227 222 216 211 205
307 305 303 301 300 298 297 296 296 296 296 296 295 294 293 292 291 293 296 300 302 301 298 295 294 294 295 294 293 293 293 293 292 293 294 292 287 284 286 289 290 290 292 295 297 296 293 290 289 289 291 293 296 299 302 304 304 303 302 301 300 299 293 281 267 255 247 242 241 243 244 245 245 245 245 244 242 238 232 224 215 207 199 191 183 176
308 307 305 303 301 300 299 299 300 300 300 300 301 300 297 292 290 292 297 301 302 299 295 293 292 293 293 294 294 294 293 293 293 295 296 292 286 284 288 291 293 295 298 299 298 295 292 291 291 293 295 298 301 306 309 309 308 307 306 307 307 307 302 290 275 262 255 255 255 253 249 246 243 241 238 235 229 220 212 203 195 187 180 174 168 164
311 310 309 308 307 308 308 309 308 307 307 307 306 303 297 292 291 295 300 302 300 297 294 293 293 293 294 295 296 295 293 293 294 296 295 292 289 288 291 292 293 294 296 297 297 296 293 292 293 296 298 301 304 307 309 309 309 309 308 305 303 303 302 299 292 280 269 260 252 244 238 234 231 228 223 218 211 203 197 192 185 179 172 167 163 160
313 313 313 313 315 316 316 315 314 312 312 311 308 303 296 294 296 299 302 301 299 296 295 294 294 293 293 294 294 293 292 293 294 295 294 292 290 289 291 292 292 292 293 293 292 292 293 293 294 294 295 298 301 303 304 307 309 307 299 290 285 284 284 282 273 259 246 238 232 227 223 220 217 213 208 203 198 193 189 185 180 175 169 164 161 159
314 315 315 316 317 317 315 314 314 315 316 312 307 301 298 299 302 303 302 300 298 297 296 294 294 293 292 291 289 288 288 290 292 294 293 292 290 289 290 290 291 291 291 288 286 286 289 291 292 292 292 294 296 298 300 304 305 298 280 264 252 245 239 230 221 214 210 207 207 205 204 202 201 200 196 193 190 187 184 181 177 174 169 165 162 159
315 315 315 316 316 314 311 311 313 315 314 310 304 301 302 305 306 306 304 303 301 298 297 295 294 293 292 290 288 286 286 288 291 292 292 290 288 288 288 288 288 287 287 285 282 281 281 284 286 288 290 290 291 292 295 300 299 286 256 227 205 195 192 191 189 186 182 179 177 177 177 178 180 181 183 183 183 183 181 179 177 176 173 169 165 161
316 316 315 315 314 312 310 311 311 312 310 306 303 303 306 309 309 308 307 306 303 300 298 296 293 292 292 291 290 288 287 288 289 290 290 289 287 286 286 286 285 285 286 285 284 282 281 281 282 285 287 288 288 288 290 294 291 273 234 201 182 174 172 171 170 168 164 161 157 154 155 157 160 164 168 172 175 176 176 176 175 175 173 171 167 162
315 315 314 313 312 311 310 310 310 309 308 306 305 306 308 309 309 308 307 305 303 301 300 298 296 294 292 290 289 289 288 289 290 291 290 289 287 285 285 283 282 283 285 285 285 284 283 281 281 283 284 286 287 288 288 290 283 261 221 193 178 171 166 163 160 157 155 151 147 145 144 146 149 153 157 161 165 167 168 168 168 168 167 167 165 162
313 312 312 312 311 311 311 310 310 309 308 307 307 308 309 309 308 307 305 305 304 303 302 301 300 297 294 291 289 288 289 290 291 292 291 289 286 284 283 281 281 282 283 283 283 282 281 281 281 281 280 281 283 285 286 287 278 255 220 192 177 171 168 164 160 156 153 150 147 145 145 147 149 151 153 156 159 160 162 162 162 162 162 163 164 164
312 312 312 312 312 311 311 311 310 310 309 309 308 308 308 308 306 305 305 305 305 305 305 304 303 300 297 294 291 289 290 291 292 292 291 288 286 284 282 282 282 283 282 281 280 280 279 279 279 279 277 275 275 277 280 282 276 256 224 197 180 173 170 167 163 159 156 152 150 149 148 150 152 154 156 158 160 161 162 163 165 166 169 171 173 175
312 312 311 312 312 312 311 311 310 310 310 310 309 309 309 308 307 306 306 306 306 306 306 306 305 304 302 299 296 294 293 293 293 293 291 290 288 285 283 282 284 285 284 282 280 278 277 275 275 275 273 271 271 272 274 276 271 255 230 206 188 179 174 170 167 163 159 155 152 151 150 151 154 157 160 162 164 164 164 165 168 171 173 174 175 175
312 311 311 311 312 312 311 310 310 310 310 310 310 310 309 309 308 308 308 308 307 307 307 306 306 306 306 306 304 301 298 297 296 296 294 293 290 287 285 284 285 287 288 286 283 279 274 271 269 268 267 267 268 270 273 273 266 251 232 212 196 185 179 175 171 167 163 158 154 151 150 152 155 158 161 164 166 166 165 164 166 168 169 168 166 165
312 311 311 312 312 311 311 310 310 311 311 311 311 311 310 310 309 309 310 310 310 309 308 308 308 308 309 309 308 305 303 301 301 301 299 296 293 290 288 287 288 289 290 288 285 280 275 270 267 264 262 261 261 263 265 265 260 246 227 212 199 188 183 179 175 171 166 161 156 152 151 153 156 159 161 164 166 167 166 165 166 168 170 167 162 158
312 311 312 312 312 312 312 311 312 312 312 312 312 311 311 311 311 312 312 312 311 311 311 311 310 310 310 310 309 308 307 308 308 307 303 298 296 294 292 290 290 290 289 288 285 282 278 273 269 265 261 257 256 257 257 255 248 233 217 206 196 189 183 179 176 172 167 162 158 155 154 154 157 159 162 164 165 167 168 167 167 167 169 169 166 160
312 312 312 312 312 313 313 313 313 313 313 313 312 312 312 313 313 314 314 313 312 312 312 312 312 311 311 311 311 312 314 315 314 309 304 300 297 295 292 291 290 289 288 286 284 282 279 275 270 265 259 254 251 249 247 244 234 218 206 200 194 187 180 177 175 172 167 163 160 158 156 156 157 160 162 163 165 166 168 168 167 166 166 165 164 162
313 312 312 312 313 313 314 314 314 315 315 315 314 314 314 315 315 315 315 314 313 313 314 315 315 314 313 313 315 316 318 318 315 310 304 300 297 294 292 291 290 289 286 283 281 279 278 274 268 262 256 251 247 242 237 231 219 207 199 195 189 181 174 172 172 171 167 164 162 160 159 159 159 161 162 163 163 165 166 166 166 165 164 163 162 160
313 313 313 313 314 314 314 314 315 316 316 315 315 315 316 316 316 316 315 315 314 315 316 317 318 317 315 314 315 316 316 316 314 310 304 299 296 294 293 291 290 288 285 280 276 274 272 268 262 256 251 246 240 235 230 221 210 200 193 189 184 178 172 170 169 169 167 165 164 162 161 161 160 160 160 160 161 161 162 162 162 162 162 162 161 160
314 313 313 314 314 314 314 314 315 316 317 315 315 316 316 317 318 317 316 316 316 317 318 320 320 318 314 313 313 313 312 312 311 309 304 300 297 294 292 289 287 284 281 277 273 269 264 258 253 248 243 236 229 224 218 211 203 196 189 184 180 177 174 171 169 168 167 165 163 162 162 161 160 158 157 156 156 156 156 156 156 157 158 159 160 160
315 315 315 315 315 314 314 315 316 316 317 316 316 317 317 318 319 319 319 318 318 319 321 323 323 318 314 313 312 312 311 311 310 310 308 306 302 298 293 289 285 281 279 275 271 266 260 253 245 237 229 221 214 210 207 203 197 191 186 182 177 174 170 168 168 168 167 165 163 161 161 160 159 157 154 152 151 151 151 151 150 151 153 155 157 159
315 315 315 315 315 315 315 316 317 317 317 317 317 318 319 320 320 321 321 322 322 323 324 327 326 321 316 314 312 311 309 310 312 317 323 327 326 319 308 297 289 284 280 274 267 260 254 246 236 226 215 205 198 195 195 195 191 186 181 178 175 171 167 166 166 167 167 165 163 161 161 160 159 156 153 151 150 149 148 148 148 148 149 151 153 156
316 316 316 316 316 316 317 318 318 318 317 317 318 319 320 321 322 323 324 325 327 329 330 330 328 323 319 316 314 313 312 313 319 331 343 355 1 3 2 355 337 310 290 273 258 246 234 226 218 212 206 199 191 186 185 185 183 180 177 175 172 169 166 164 164 165 165 164 162 161 161 161 160 157 154 152 150 149 149 148 148 147 147 147 149 151
316 316 316 317 316 316 316 317 318 318 318 318 320 321 322 323 326 327 328 330 333 334 334 332 329 324 318 314 314 316 318 323 332 344 353 1 10 22 37 51 64 73 83 104 143 166 173 176 180 187 193 195 188 182 179 177 176 174 172 170 169 167 164 163 162 163 163 163 162 162 162 163 163 161 158 155 152 152 152 151 150 149 148 147 147 148
317 317 317 317 317 317 316 317 318 318 318 320 321 322 323 326 329 332 334 336 337 338 337 335 330 323 315 313 315 319 325 334 344 351 356 359 3 12 29 53 68 79 88 97 107 116 124 128 134 146 166 178 180 177 173 171 170 169 166 165 165 164 161 159 159 160 161 161 161 162 163 164 165 164 162 158 156 155 155 155 155 154 153 152 150 149
318 318 318 318 318 318 318 318 318 319 320 322 323 324 326 328 331 335 338 340 341 342 341 338 331 322 315 315 319 327 334 343 350 355 358 1 3 7 15 36 63 82 92 98 102 105 106 104 104 110 127 147 162 168 167 165 164 163 160 159 160 160 159 157 157 158 159 159 160 161 162 163 165 165 164 161 159 157 158 159 160 161 161 161 159 158
Height
1336 1334 1332 1331 1329 1326 1322 1321 1321 1319 1315 1313 1312 1310 1309 1307 1306 1305 1303 1302 1301 1300 1298 1297 1296 1294 1293 1292 1291 1290 1289 1289 1288 1288 1287 1286 1285 1284 1283 1282 1281 1281 1280 1279 1278 1278 1277 1277 1277 1277 1277 1277 1276 1276 1276 1276 1275 1275 1275 1275 1275 1275 1275 1275 1275 1275 1275 1276 1276 1277 1277 1278 1278 1279 1279 1280 1280 1281 1282 1283 1284 1285 1286 1287 1288 1290
1335 1332 1330 1328 1327 1324 1319 1318 1318 1317 1314 1311 1309 1308 1306 1304 1302 1301 1299 1298 1297 1296 1295 1294 1292 1291 1290 1288 1287 1286 1286 1285 1285 1284 1283 1282 1281 1280 1280 1279 1278 1277 1276 1275 1275 1274 1273 1273 1273 1273 1273 1273 1273 1273 1272 1272 1272 1271 1271 1271 1271 1271 1271 1271 1271 1271 1271 1272 1272 1273 1273 1274 1274 1275 1276 1276 1276 1277 1278 1279 1280 1281 1282 1283 1284 1285
1333 1330 1327 1326 1324 1322 1318 1316 1315 1314 1312 1310 1307 1305 1304 1302 1300 1298 1296 1295 1294 1293 1292 1291 1290 1288 1286 1285 1284 1283 1282 1281 1281 1280 1279 1279 1278 1277 1276 1275 1274 1273 1272 1271 1271 1270 1270 1269 1269 1269 1269 1269 1269 1269 1269 1269 1269 1268 1268 1268 1268 1268 1268 1268 1268 1268 1268 1268 1269 1269 1270 1270 1271 1271 1271 1272 1272 1273 1274 1275 1276 1277 1278 1279 1280 1281
1332 1328 1325 1323 1321 1319 1317 1315 1312 1311 1309 1307 1305 1303 1302 1300 1298 1296 1294 1293 1291 1290 1289 1288 1287 1285 1283 1281 1280 1279 1278 1277 1276 1276 1275 1275 1274 1273 1272 1271 1271 1270 1269 1268 1267 1266 1266 1266 1266 1266 1265 1266 1266 1266 1265 1265 1265 1265 1264 1264 1264 1264 1264 1264 1264 1264 1264 1264 1265 1265 1266 1266 1266 1267 1267 1268 1268 1269 1270 1271 1272 1273 1274 1276 1276 1277
1330 1327 1324 1322 1319 1316 1314 1313 1311 1309 1307 1305 1303 1301 1300 1298 1296 1294 1292 1291 1289 1287 1286 1285 1283 1282 1280 1278 1276 1275 1275 1274 1273 1272 1272 1271 1271 1270 1269 1268 1267 1266 1266 1265 1264 1263 1263 1262 1262 1262 1262 1262 1262 1262 1262 1261 1261 1261 1261 1261 1261 1261 1261 1261 1260 1260 1260 1260 1261 1261 1261 1262 1262 1263 1263 1264 1264 1265 1266 1267 1268 1269 1271 1271 1273 1274
1327 1326 1323 1321 1318 1315 1312 1310 1309 1307 1305 1302 1301 1299 1298 1296 1294 1292 1290 1288 1287 1285 1283 1281 1280 1279 1277 1276 1274 1273 1272 1271 1270 1269 1269 1268 1267 1266 1265 1265 1264 1263 1262 1261 1260 1260 1259 1258 1258 1258 1258 1258 1258 1258 1258 1258 1257 1257 1257 1257 1257 1257 1257 1257 1256 1256 1256 1256 1257 1257 1257 1257 1258 1258 1259 1260 1261 1261 1262 1263 1264 1266 1267 1268 1269 1270
1324 1323 1321 1318 1316 1313 1311 1308 1306 1305 1303 1301 1298 1296 1295 1293 1292 1290 1288 1286 1284 1282 1280 1278 1277 1276 1274 1273 1271 1270 1269 1268 1267 1266 1265 1264 1263 1262 1261 1261 1260 1260 1259 1258 1257 1256 1255 1255 1255 1254 1254 1254 1254 1254 1254 1254 1254 1254 1253 1254 1254 1254 1254 1253 1253 1253 1253 1253 1253 1253 1253 1253 1253 1254 1255 1255 1256 1257 1258 1259 1261 1262 1263 1264 1265 1266
1321 1320 1318 1316 1313 1310 1308 1306 1305 1304 1302 1300 1297 1295 1292 1290 1289 1287 1285 1283 1282 1280 1278 1276 1274 1272 1271 1270 1269 1268 1266 1265 1264 1262 1261 1261 1260 1259 1258 1257 1257 1256 1255 1254 1253 1252 1252 1251 1251 1251 1251 1251 1251 1251 1250 1250 1250 1250 1250 1250 1250 1250 1250 1250 1250 1249 1249 1249 1249 1249 1249 1249 1249 1250 1250 1251 1252 1253 1254 1255 1256 1258 1259 1260 1261 1262
1320 1317 1315 1314 1312 1309 1306 1304 1303 1303 1301 1299 1296 1294 1291 1288 1286 1283 1282 1280 1279 1278 1276 1274 1271 1269 1268 1267 1266 1265 1264 1262 1261 1260 1259 1258 1257 1256 1255 1254 1253 1252 1251 1251 1250 1249 1248 1248 1248 1247 1247 1247 1247 1247 1246 1246 1246 1246 1246 1246 1246 1246 1246 1246 1246 1246 1246 1246 1245 1245 1245 1245 1245 1246 1246 1247 1248 1249 1250 1251 1252 1254 1255 1256 1257 1259
1318 1316 1313 1311 1310 1309 1306 1302 1300 1300 1299 1297 1295 1292 1290 1287 1284 1281 1279 1276 1276 1275 1274 1272 1270 1267 1265 1264 1264 1263 1261 1260 1258 1257 1256 1255 1254 1253 1252 1251 1250 1249 1248 1247 1246 1245 1245 1244 1244 1244 1244 1244 1243 1243 1243 1242 1242 1242 1242 1242 1242 1242 1242 1242 1242 1242 1242 1242 1242 1242 1241 1241 1241 1241 1242 1243 1244 1245 1246 1247 1248 1250 1251 1252 1254 1255
1316 1314 1312 1310 1308 1306 1305 1301 1299 1297 1296 1294 1292 1290 1288 1286 1284 1281 1277 1274 1272 1271 1271 1269 1268 1266 1264 1262 1261 1260 1259 1257 1256 1254 1253 1252 1251 1250 1249 1248 1247 1246 1244 1243 1242 1241 1241 1241 1240 1240 1240 1240 1239 1239 1239 1238 1238 1238 1238 1238 1238 1238 1238 1239 1239 1239 1239 1239 1239 1238 1238 1238 1238 1238 1238 1239 1240 1241 1242 1243 1244 1245 1247 1248 1250 1251
1314 1312 1310 1307 1305 1303 1302 1300 1297 1295 1294 1292 1289 1287 1285 1284 1283 1281 1277 1273 1271 1269 1268 1266 1265 1264 1262 1260 1258 1257 1256 1255 1253 1251 1250 1249 1248 1247 1246 1245 1243 1242 1241 1239 1238 1238 1237 1237 1237 1237 1236 1236 1235 1235 1235 1234 1234 1234 1234 1234 1234 1235 1235 1235 1235 1235 1236 1236 1236 1235 1235 1235 1234 1234 1235 1235 1236 1237 1238 1239 1240 1241 1243 1244 1246 1247
1312 1310 1308 1305 1303 1301 1299 1297 1295 1293 1291 1290 1288 1285 1283 1281 1280 1279 1276 1272 1270 1268 1266 1264 1261 1260 1259 1258 1256 1255 1253 1251 1250 1248 1247 1246 1245 1244 1243 1241 1240 1239 1238 1236 1236 1235 1234 1233 1233 1232 1232 1231 1231 1231 1231 1231 1231 1231 1231 1231 1231 1231 1231 1231 1231 1231 1232 1232 1232 1232 1232 1231 1231 1231 1231 1231 1232 1233 1234 1235 1236 1237 1239 1240 1241 1243
1309 1307 1306 1303 1301 1299 1297 1295 1293 1290 1289 1287 1286 1284 1282 1280 1278 1276 1273 1270 1268 1266 1264 1261 1259 1257 1256 1255 1254 1252 1251 1248 1246 1245 1244 1242 1242 1241 1240 1239 1238 1236 1236 1234 1233 1231 1231 1230 1229 1229 1228 1228 1228 1227 1227 1227 1227 1227 1228 1227 1227 1227 1227 1227 1227 1228 1228 1228 1228 1228 1228 1228 1228 1228 1228 1228 1229 1229 1230 1231 1232 1234 1235 1236 1238 1239
1307 1305 1303 1301 1299 1296 1295 1292 1290 1288 1286 1285 1284 1282 1280 1278 1276 1274 1271 1268 1265 1263 1262 1259 1256 1254 1252 1252 1251 1250 1248 1246 1244 1242 1241 1239 1239 1239 1238 1236 1235 1234 1233 1232 1230 1229 1228 1227 1226 1225 1225 1224 1224 1224 1225 1225 1225 1225 1224 1224 1224 1224 1223 1223 1224 1224 1224 1224 1225 1225 1225 1225 1225 1225 1225 1225 1225 1226 1226 1227 1228 1230 1231 1232 1234 1235
1305 1303 1301 1298 1296 1293 1291 1290 1288 1286 1284 1284 1282 1281 1278 1276 1273 1271 1269 1266 1263 1261 1258 1256 1253 1250 1249 1249 1248 1248 1246 1244 1242 1240 1239 1237 1236 1236 1236 1235 1233 1231 1230 1229 1227 1226 1225 1224 1223 1222 1221 1221 1221 1221 1221 1221 1221 1221 1221 1221 1220 1220 1220 1220 1220 1220 1220 1220 1221 1221 1221 1221 1221 1221 1221 1221 1222 1222 1223 1224 1225 1226 1227 1228 1230 1231
1303 1301 1298 1295 1292 1290 1289 1287 1286 1285 1283 1282 1281 1279 1276 1274 1271 1269 1266 1263 1261 1258 1256 1254 1251 1248 1246 1245 1246 1246 1245 1243 1241 1238 1236 1234 1233 1233 1234 1233 1230 1228 1226 1225 1223 1222 1221 1220 1219 1218 1218 1217 1217 1217 1218 1218 1218 1218 1218 1217 1217 1217 1216 1216 1216 1216 1216 1216 1216 1216 1217 1217 1217 1217 1218 1218 1218 1219 1219 1220 1221 1222 1223 1224 1226 1227
1300 1298 1295 1292 1290 1288 1286 1285 1284 1283 1282 1280 1278 1276 1274 1271 1269 1266 1264 1261 1259 1256 1254 1252 1250 1248 1246 1243 1243 1243 1244 1242 1240 1236 1234 1231 1230 1229 1230 1229 1227 1224 1222 1220 1219 1217 1216 1216 1215 1215 1214 1214 1214 1214 1215 1215 1215 1215 1214 1214 1214 1213 1213 1213 1212 1212 1212 1212 1212 1212 1213 1213 1213 1213 1214 1214 1214 1215 1216 1216 1217 1218 1219 1220 1222 1223
1297 1295 1293 1290 1288 1286 1285 1284 1283 1281 1280 1278 1276 1273 1271 1268 1266 1263 1261 1259 1257 1255 1253 1251 1249 1247 1246 1243 1240 1240 1241 1240 1237 1234 1231 1228 1226 1225 1225 1225 1223 1221 1218 1216 1215 1214 1213 1212 1211 1211 1211 1211 1211 1211 1211 1211 1211 1211 1211 1210 1210 1209 1209 1209 1209 1209 1209 1208 1208 1208 1209 1209 1209 1209 1210 1210 1211 1211 1212 1212 1213 1214 1215 1216 1217 1219
1294 1292 1291 1289 1287 1284 1283 1282 1281 1280 1278 1276 1274 1271 1267 1265 1262 1261 1258 1256 1255 1253 1251 1250 1247 1245 1243 1241 1238 1237 1237 1237 1235 1231 1228 1225 1222 1221 1221 1221 1220 1217 1215 1213 1212 1211 1211 1209 1208 1208 1208 1208 1208 1208 1208 1208 1208 1207 1207 1206 1206 1205 1205 1205 1205 1205 1204 1204 1204 1204 1205 1205 1205 1206 1206 1206 1206 1207 1208 1208 1209 1210 1211 1212 1213 1215
1292 1290 1289 1288 1286 1284 1281 1279 1278 1277 1275 1273 1271 1268 1265 1263 1261 1259 1256 1255 1253 1251 1250 1248 1245 1243 1241 1239 1236 1234 1234 1234 1232 1229 1225 1222 1219 1218 1218 1218 1216 1214 1212 1210 1209 1208 1208 1207 1206 1205 1205 1205 1205 1205 1205 1205 1204 1204 1203 1202 1202 1201 1201 1201 1200 1200 1200 1200 1200 1200 1201 1201 1201 1202 1202 1202 1203 1203 1204 1204 1205 1206 1207 1208 1209 1211
1291 1288 1286 1286 1285 1282 1279 1276 1275 1273 1272 1270 1268 1266 1263 1261 1259 1257 1255 1253 1251 1249 1247 1245 1243 1241 1239 1236 1233 1231 1231 1231 1229 1226 1222 1219 1216 1214 1215 1215 1214 1211 1209 1208 1206 1206 1206 1205 1204 1203 1203 1203 1202 1202 1202 1201 1201 1200 1199 1199 1198 1197 1197 1196 1196 1196 1196 1196 1196 1196 1196 1197 1197 1198 1198 1199 1199 1199 1200 1201 1201 1202 1203 1204 1206 1207
1289 1286 1284 1282 1281 1279 1276 1274 1271 1269 1268 1267 1266 1264 1262 1260 1258 1256 1253 1251 1249 1246 1244 1242 1240 1238 1236 1233 1231 1228 1228 1228 1227 1225 1221 1217 1214 1212 1212 1213 1212 1210 1207 1206 1205 1205 1203 1202 1201 1200 1200 1200 1200 1199 1199 1198 1197 1197 1196 1195 1194 1194 1193 1193 1192 1192 1192 1192 1192 1192 1193 1193 1194 1194 1195 1195 1196 1196 1196 1197 1198 1199 1200 1201 1202 1204
1286 1284 1281 1279 1278 1276 1274 1271 1268 1266 1265 1264 1263 1261 1260 1258 1256 1254 1251 1249 1246 1244 1242 1240 1237 1234 1231 1230 1228 1226 1225 1225 1225 1224 1221 1217 1213 1210 1210 1210 1210 1207 1204 1203 1202 1202 1200 1199 1198 1197 1197 1197 1196 1196 1196 1195 1194 1193 1192 1191 1191 1190 1189 1189 1189 1188 1188 1188 1189 1189 1189 1190 1190 1191 1191 1192 1193 1193 1194 1194 1195 1196 1196 1198 1200 1201
1283 1281 1278 1276 1275 1273 1271 1268 1266 1265 1264 1262 1260 1258 1256 1255 1253 1251 1249 1246 1244 1242 1241 1238 1235 1232 1229 1227 1225 1223 1221 1222 1221 1220 1218 1215 1211 1209 1207 1208 1208 1206 1202 1200 1200 1199 1198 1196 1195 1194 1194 1193 1193 1193 1193 1192 1191 1190 1189 1188 1187 1186 1186 1185 1185 1185 1185 1185 1185 1186 1186 1186 1187 1188 1189 1189 1190 1191 1191 1191 1192 1193 1194 1196 1197 1199
1281 1278 1276 1274 1272 1270 1268 1266 1264 1263 1261 1260 1259 1256 1254 1252 1250 1248 1246 1244 1242 1241 1239 1236 1233 1230 1227 1225 1222 1220 1219 1219 1218 1217 1216 1213 1210 1206 1204 1205 1205 1203 1200 1197 1196 1196 1195 1193 1191 1191 1191 1190 1190 1191 1190 1189 1188 1187 1186 1185 1184 1183 1182 1182 1181 1181 1181 1182 1182 1183 1183 1184 1185 1185 1186 1186 1187 1188 1188 1189 1190 1191 1192 1194 1195 1197
1277 1275 1273 1271 1269 1267 1265 1263 1261 1260 1258 1257 1256 1254 1252 1250 1248 1246 1243 1242 1241 1240 1237 1235 1231 1228 1225 1223 1220 1218 1216 1216 1216 1215 1214 1212 1209 1205 1202 1202 1202 1200 1197 1195 1194 1193 1192 1191 1189 1188 1188 1187 1188 1188 1187 1187 1186 1184 1183 1182 1181 1180 1179 1179 1179 1179 1179 1180 1180 1181 1181 1181 1182 1182 1183 1184 1184 1185 1186 1186 1187 1189 1190 1192 1195 1196
1273 1271 1269 1267 1265 1263 1261 1260 1258 1256 1255 1254 1252 1251 1250 1248 1246 1244 1241 1240 1239 1238 1236 1233 1230 1226 1223 1220 1217 1215 1214 1214 1213 1212 1211 1210 1207 1203 1200 1200 1200 1198 1196 1194 1192 1191 1190 1188 1187 1186 1186 1186 1186 1186 1185 1184 1183 1182 1181 1179 1178 1178 1177 1177 1177 1177 1177 1177 1178 1178 1179 1179 1180 1181 1181 1182 1182 1183 1183 1184 1186 1187 1189 1191 1193 1195
1269 1267 1265 1263 1261 1260 1258 1256 1254 1253 1251 1250 1249 1248 1247 1246 1245 1242 1240 1239 1238 1236 1233 1230 1228 1225 1222 1218 1215 1212 1211 1211 1211 1210 1209 1208 1205 1201 1199 1199 1199 1197 1196 1193 1190 1188 1186 1186 1185 1184 1184 1184 1184 1184 1183 1182 1181 1180 1178 1177 1176 1176 1175 1176 1176 1176 1176 1176 1176 1177 1178 1179 1179 1180 1180 1181 1181 1181 1182 1183 1184 1185 1187 1189 1191 1193
1265 1263 1261 1259 1258 1256 1254 1252 1251 1249 1248 1247 1246 1245 1245 1244 1243 1241 1239 1237 1236 1234 1231 1228 1226 1223 1221 1217 1213 1210 1207 1208 1208 1208 1207 1206 1203 1200 1199 1198 1197 1196 1195 1193 1190 1186 1184 1183 1183 1183 1182 1182 1182 1182 1182 1181 1180 1178 1177 1176 1175 1175 1174 1174 1174 1174 1175 1176 1176 1177 1178 1178 1179 1179 1179 1180 1180 1180 1181 1181 1182 1184 1186 1188 1190 1192
1261 1260 1258 1256 1254 1253 1251 1250 1248 1246 1245 1244 1243 1242 1242 1241 1240 1238 1237 1235 1234 1231 1229 1226 1223 1221 1219 1217 1213 1209 1205 1204 1206 1206 1205 1204 1201 1198 1197 1196 1195 1194 1194 1194 1191 1187 1183 1181 1181 1181 1181 1181 1181 1181 1180 1180 1179 1178 1177 1176 1176 1175 1174 1174 1174 1175 1175 1176 1176 1177 1178 1178 1179 1179 1179 1179 1179 1180 1180 1181 1182 1184 1186 1187 1190 1192
1259 1257 1256 1254 1252 1251 1249 1247 1246 1244 1242 1241 1241 1240 1239 1238 1237 1235 1234 1232 1231 1229 1227 1224 1221 1219 1217 1215 1212 1208 1203 1202 1203 1204 1203 1202 1199 1196 1195 1195 1194 1192 1192 1192 1191 1188 1185 1181 1179 1179 1179 1179 1179 1179 1179 1179 1178 1178 1178 1177 1176 1176 1175 1175 1175 1175 1176 1176 1177 1177 1178 1178 1178 1179 1179 1179 1179 1180 1181 1182 1183 1184 1185 1187 1189 1192
1257 1256 1254 1252 1250 1248 1246 1245 1243 1241 1240 1239 1238 1237 1236 1235 1233 1231 1230 1229 1227 1226 1224 1221 1219 1216 1214 1211 1209 1206 1202 1201 1201 1201 1201 1200 1197 1195 1193 1193 1192 1191 1190 1190 1189 1188 1185 1182 1179 1178 1177 1177 1177 1178 1178 1178 1178 1178 1178 1177 1176 1176 1176 1175 1175 1175 1176 1176 1177 1178 1178 1178 1179 1179 1179 1179 1180 1181 1182 1183 1184 1185 1186 1187 1189 1192
1255 1253 1251 1250 1248 1246 1244 1243 1241 1239 1238 1237 1236 1235 1233 1231 1230 1228 1226 1225 1224 1223 1221 1219 1217 1214 1211 1208 1205 1202 1200 1199 1199 1199 1198 1197 1195 1193 1191 1191 1190 1189 1188 1187 1186 1185 1184 1181 1180 1178 1176 1176 1176 1176 1177 1177 1177 1178 1178 1177 1176 1176 1176 1176 1175 1175 1176 1177 1178 1179 1179 1180 1180 1179 1179 1180 1181 1181 1183 1184 1185 1186 1186 1187 1189 1191
1253 1251 1250 1248 1246 1244 1242 1241 1239 1237 1236 1235 1233 1231 1230 1228 1226 1224 1223 1221 1220 1219 1218 1216 1214 1212 1210 1206 1203 1200 1197 1196 1196 1196 1196 1195 1193 1191 1190 1188 1188 1187 1186 1185 1184 1183 1181 1180 1178 1177 1176 1175 1174 1174 1175 1176 1176 1177 1178 1177 1176 1176 1176 1176 1176 1176 1176 1177 1178 1179 1180 1180 1181 1181 1181 1181 1182 1183 1184 1185 1186 1187 1189 1190 1191 1193
1252 1250 1248 1246 1245 1243 1241 1239 1237 1235 1234 1232 1230 1229 1227 1225 1223 1221 1220 1218 1217 1215 1214 1212 1211 1209 1207 1205 1202 1198 1195 1193 1193 1193 1193 1192 1191 1190 1188 1186 1185 1185 1185 1183 1182 1181 1180 1178 1177 1176 1176 1175 1173 1173 1173 1174 1175 1176 1177 1177 1176 1176 1176 1176 1176 1176 1176 1177 1178 1180 1180 1181 1181 1181 1182 1183 1184 1185 1186 1188 1190 1191 1193 1195 1197 1199
1251 1249 1247 1245 1243 1241 1239 1237 1235 1233 1231 1230 1228 1226 1224 1222 1220 1219 1217 1215 1213 1212 1210 1208 1206 1205 1203 1201 1199 1196 1193 1191 1190 1190 1190 1189 1188 1187 1185 1183 1182 1182 1182 1181 1180 1179 1178 1177 1176 1175 1174 1173 1173 1172 1172 1173 1174 1176 1176 1176 1176 1176 1176 1176 1176 1176 1176 1177 1178 1180 1181 1181 1182 1183 1184 1185 1186 1187 1189 1191 1193 1195 1197 1199 1201 1203
1250 1248 1246 1244 1242 1240 1237 1235 1233 1231 1229 1227 1225 1223 1221 1219 1217 1216 1214 1212 1210 1208 1206 1204 1202 1201 1199 1197 1195 1193 1191 1189 1187 1186 1186 1186 1185 1184 1183 1181 1180 1180 1180 1179 1178 1177 1177 1176 1175 1174 1173 1172 1171 1171 1172 1173 1174 1175 1175 1176 1176 1176 1176 1176 1177 1177 1177 1178 1179 1180 1181 1182 1183 1184 1185 1186 1187 1189 1191 1193 1195 1196 1198 1200 1202 1204
1249 1246 1244 1242 1240 1238 1236 1233 1231 1229 1227 1225 1222 1220 1218 1216 1215 1213 1211 1209 1207 1205 1203 1201 1199 1197 1195 1193 1191 1190 1188 1186 1185 1184 1183 1183 1182 1181 1180 1178 1177 1176 1176 1176 1176 1175 1175 1174 1173 1172 1171 1171 1170 1170 1171 1171 1172 1173 1174 1175 1176 1176 1176 1177 1177 1178 1178 1179 1180 1181 1182 1183 1183 1184 1186 1187 1188 1190 1191 1193 1195 1196 1198 1200 1202 1205
1247 1245 1242 1240 1238 1236 1234 1232 1229 1227 1225 1222 1220 1217 1216 1214 1212 1210 1208 1206 1204 1202 1200 1198 1196 1194 1191 1190 1188 1186 1185 1184 1183 1182 1181 1180 1179 1178 1177 1176 1175 1174 1173 1173 1173 1172 1172 1171 1171 1170 1170 1170 1169 1169 1170 1170 1171 1172 1173 1174 1175 1176 1176 1177 1178 1179 1179 1180 1180 1181 1182 1183 1184 1185 1186 1187 1189 1190 1191 1193 1195 1197 1198 1200 1202 1205
1246 1243 1241 1238 1236 1234 1232 1230 1227 1225 1222 1220 1217 1215 1214 1212 1210 1207 1205 1203 1201 1199 1197 1195 1193 1191 1189 1187 1186 1184 1183 1181 1180 1179 1178 1177 1176 1175 1174 1173 1172 1171 1171 1170 1170 1169 1169 1169 1168 1168 1168 1168 1168 1168 1168 1169 1170 1171 1172 1173 1173 1174 1176 1177 1178 1179 1180 1181 1181 1181 1182 1183 1185 1186 1187 1189 1190 1191 1193 1194 1195 1197 1199 1201 1202 1204
1244 1241 1239 1237 1235 1232 1230 1228 1225 1223 1221 1218 1216 1214 1212 1210 1208 1206 1203 1201 1198 1196 1195 1193 1191 1189 1186 1185 1183 1182 1181 1179 1178 1177 1176 1175 1174 1173 1172 1171 1170 1169 1168 1168 1167 1166 1166 1166 1166 1166 1166 1166 1166 1167 1167 1168 1169 1170 1171 1171 1172 1174 1175 1177 1178 1179 1180 1181 1182 1182 1183 1184 1185 1186 1188 1190 1191 1193 1194 1196 1197 1199 1200 1202 1204 1206
1243 1240 1238 1235 1233 1231 1228 1226 1223 1221 1218 1216 1214 1212 1210 1208 1206 1204 1201 1199 1196 1194 1193 1191 1189 1187 1185 1182 1181 1179 1178 1177 1176 1175 1174 1173 1171 1171 1170 1169 1168 1167 1166 1166 1165 1164 1164 1164 1164 1164 1164 1164 1165 1166 1166 1167 1168 1169 1170 1171 1171 1173 1174 1176 1178 1179 1180 1181 1182 1182 1183 1184 1186 1187 1189 1191 1193 1195 1196 1198 1199 1201 1202 1203 1205 1207
1241 1239 1236 1234 1231 1228 1226 1223 1221 1219 1217 1215 1212 1210 1208 1206 1205 1202 1200 1197 1195 1193 1191 1189 1187 1185 1183 1181 1179 1178 1177 1176 1175 1173 1172 1171 1170 1169 1168 1167 1166 1165 1165 1164 1163 1163 1162 1162 1162 1162 1162 1163 1164 1164 1165 1166 1167 1168 1169 1170 1171 1172 1173 1175 1176 1178 1180 1181 1182 1183 1184 1185 1186 1188 1190 1192 1194 1196 1197 1199 1201 1202 1204 1205 1207 1208
1240 1237 1235 1232 1230 1227 1224 1222 1220 1217 1215 1213 1211 1208 1206 1205 1203 1201 1198 1196 1193 1191 1189 1188 1186 1184 1182 1180 1179 1177 1176 1175 1173 1172 1171 1170 1169 1168 1166 1166 1165 1164 1163 1162 1162 1161 1161 1161 1161 1161 1162 1162 1163 1164 1164 1165 1166 1167 1168 1169 1171 1171 1172 1174 1176 1178 1180 1181 1183 1184 1185 1186 1187 1189 1191 1193 1195 1197 1199 1201 1202 1204 1206 1208 1209 1211
1238 1236 1233 1230 1228 1226 1223 1221 1218 1216 1213 1211 1209 1207 1205 1203 1201 1199 1196 1194 1192 1190 1188 1186 1185 1183 1181 1179 1178 1176 1175 1174 1173 1172 1171 1169 1168 1167 1166 1165 1164 1163 1162 1161 1161 1161 1161 1160 1160 1161 1161 1161 1162 1163 1164 1164 1165 1166 1167 1169 1170 1171 1173 1175 1177 1179 1180 1182 1183 1185 1186 1188 1189 1190 1192 1194 1196 1198 1201 1202 1204 1206 1208 1210 1211 1213
1237 1234 1231 1229 1226 1224 1221 1219 1217 1214 1211 1209 1207 1205 1203 1201 1199 1197 1195 1193 1191 1189 1187 1185 1184 1182 1180 1179 1177 1176 1175 1173 1172 1171 1170 1169 1168 1166 1165 1164 1163 1162 1161 1161 1160 1160 1160 1160 1160 1160 1161 1161 1161 1162 1163 1164 1165 1166 1167 1169 1170 1172 1173 1175 1177 1179 1181 1183 1184 1186 1187 1189 1190 1191 1193 1195 1197 1200 1202 1204 1206 1207 1209 1211 1213 1215
1236 1233 1230 1228 1225 1222 1220 1217 1215 1212 1210 1207 1206 1204 1202 1200 1198 1196 1193 1191 1190 1188 1186 1184 1182 1181 1179 1178 1177 1176 1175 1174 1173 1171 1170 1169 1168 1167 1166 1164 1163 1162 1161 1161 1160 1160 1160 1160 1160 1160 1160 1161 1161 1161 1162 1163 1165 1166 1167 1169 1171 1172 1174 1176 1178 1180 1182 1184 1185 1187 1188 1190 1191 1192 1194 1196 1198 1201 1203 1205 1207 1209 1211 1212 1214 1216
1235 1232 1229 1226 1224 1221 1218 1216 1213 1211 1209 1206 1204 1202 1200 1198 1196 1194 1192 1190 1188 1187 1185 1183 1182 1180 1179 1177 1176 1176 1175 1174 1173 1172 1171 1170 1168 1167 1166 1165 1164 1163 1162 1161 1161 1160 1160 1160 1160 1160 1161 1161 1161 1161 1162 1164 1165 1166 1168 1170 1171 1173 1175 1177 1179 1181 1183 1185 1186 1188 1189 1191 1192 1194 1195 1197 1199 1201 1204 1206 1208 1210 1211 1213 1215 1217
1233 1231 1228 1226 1223 1220 1217 1215 1212 1210 1207 1205 1203 1201 1198 1196 1195 1193 1191 1189 1188 1186 1184 1183 1181 1180 1179 1177 1176 1176 1175 1174 1173 1172 1171 1170 1169 1168 1167 1166 1165 1164 1163 1162 1161 1161 1161 1160 1160 1161 1161 1162 1162 1162 1163 1165 1166 1167 1169 1171 1172 1174 1176 1178 1181 1182 1184 1186 1188 1189 1191 1192 1194 1196 1197 1198 1200 1202 1205 1207 1209 1211 1212 1214 1216 1218
1232 1229 1227 1225 1222 1219 1216 1213 1211 1209 1207 1205 1202 1200 1197 1195 1193 1191 1190 1188 1187 1185 1184 1182 1181 1180 1179 1177 1176 1176 1175 1174 1173 1172 1171 1170 1169 1168 1167 1167 1166 1165 1165 1164 1163 1162 1161 1161 1161 1162 1162 1163 1164 1165 1165 1166 1167 1169 1171 1172 1174 1176 1177 1179 1181 1183 1185 1187 1189 1191 1192 1194 1195 1197 1198 1200 1201 1203 1206 1207 1210 1211 1213 1215 1216 1218